Location: Unspecified
(0.0000°N, 0.0000°E)
Time: 23:38:02
(UTC+00:00)

Envisat - Pass Details

Date: 09 August 2022
Orbit: 763 x 765 km, 98.2° (Epoch: 15 August)

Event Time Altitude Azimuth Distance (km) Brightness Sun altitude
Rises 05:03:01 0° 340° (NNW) 3,212 6.2 -15.0°
Reaches altitude 10° 05:06:11 10° 319° (NW) 2,291 5.2 -14.3°
Maximum altitude 05:09:09 16° 282° (WNW) 1,921 4.5 -13.6°
Enters shadow 05:09:18 16° 280° (W) 1,922 4.5 -13.5°
